W4GHW Weather Reports


Display with metric or nautical units.
time (UTC)temp
F
wind
direction
speed
MPH
gust
MPH
rain 1hr
in
rain 24hr
in
rain mn
in
humidity
%
barometer
mb
20260509113005 62 125 1.0 2.0 0.00 0.17 0.00 92 1014.2
20260509112005 62 125 0.0 1.0 0.00 0.17 0.00 92 1014.3
20260509111005 62 125 0.0 2.0 0.00 0.17 0.00 92 1014.1
20260509110004 62 125 1.0 2.0 0.00 0.17 0.00 92 1013.9
20260509105004 62 138 1.0 1.0 0.00 0.17 0.00 92 1014.0
20260509104004 62 218 0.0 2.0 0.00 0.17 0.00 92 1014.3
20260509103004 62 218 0.0 2.0 0.00 0.17 0.00 92 1013.9
20260509102005 62 218 0.0 2.0 0.00 0.17 0.00 92 1013.7
20260509100006 61 161 2.0 3.0 0.00 0.17 0.00 92 1013.3
20260509095004 61 143 1.0 3.0 0.00 0.17 0.00 92 1013.1
20260509094004 61 124 0.0 2.0 0.00 0.17 0.00 92 1013.2
20260509093005 60 124 0.0 0.0 0.00 0.17 0.00 92 1013.2
20260509092004 60 124 0.0 1.0 0.00 0.17 0.00 92 1013.2
20260509091005 60 153 0.0 0.0 0.00 0.17 0.00 92 1013.2
20260509090004 60 152 0.0 0.0 0.00 0.17 0.00 92 1013.0
20260509085005 61 152 0.0 0.0 0.00 0.17 0.00 92 1013.1
20260509084005 61 152 0.0 1.0 0.00 0.17 0.00 92 1013.2
20260509083005 61 152 0.0 1.0 0.00 0.17 0.00 91 1013.4
20260509082005 61 152 0.0 0.0 0.00 0.17 0.00 92 1013.4
20260509081005 61 152 0.0 1.0 0.00 0.17 0.00 91 1013.5
20260509080005 61 152 0.0 1.0 0.00 0.17 0.00 91 1013.4
20260509075005 61 152 0.0 0.0 0.00 0.17 0.00 91 1013.3
20260509074004 61 138 0.0 1.0 0.00 0.17 0.00 91 1013.0
20260509073005 61 104 0.0 1.0 0.00 0.17 0.00 91 1012.8
20260509072005 61 98 0.0 2.0 0.00 0.17 0.00 91 1012.9
20260509071004 62 5 0.0 2.0 0.00 0.17 0.00 91 1013.2
20260509070004 62 5 0.0 2.0 0.00 0.17 0.00 91 1013.2
20260509065005 62 331 0.0 2.0 0.00 0.17 0.00 91 1012.9
20260509064005 62 11 1.0 3.0 0.00 0.17 0.00 91 1012.9
20260509063004 62 108 2.0 3.0 0.00 0.17 0.00 91 1013.5
20260509062005 62 109 1.0 3.0 0.00 0.17 0.00 91 1013.9
20260509061004 62 108 1.0 2.0 0.00 0.17 0.00 91 1014.1
20260509060005 62 353 1.0 2.0 0.00 0.17 0.00 91 1014.4
20260509055004 62 32 0.0 2.0 0.00 0.17 0.00 91 1014.2
20260509054005 62 86 1.0 3.0 0.00 0.17 0.00 91 1013.9
20260509053004 62 63 1.0 2.0 0.00 0.17 0.00 91 1014.4
20260509052005 62 124 1.0 3.0 0.00 0.17 0.00 91 1014.8
20260509051004 62 79 1.0 2.0 0.00 0.17 0.00 91 1015.0
20260509050005 63 325 2.0 10.0 0.00 0.17 0.00 91 1015.4
20260509045004 63 347 5.0 9.0 0.00 0.17 0.00 91 1015.4
20260509044005 63 135 2.0 3.0 0.00 0.17 0.00 91 1014.4
20260509042005 63 125 1.0 2.0 0.00 0.17 0.00 90 1015.3
20260509041004 63 164 2.0 3.0 0.00 0.17 0.00 90 1015.2
20260509040005 63 144 2.0 3.0 0.00 0.17 0.00 90 1015.6
20260509035005 63 107 1.0 3.0 0.00 0.17 0.17 90 1015.9
20260509033005 63 313 2.0 6.0 0.01 0.17 0.17 90 1015.9
20260509032005 63 324 4.0 12.0 0.01 0.17 0.17 90 1016.1
20260509031005 62 173 2.0 9.0 0.01 0.17 0.17 90 1014.5
20260509030004 63 149 3.0 9.0 0.01 0.17 0.17 90 1014.1
20260509025005 63 160 1.0 6.0 0.01 0.17 0.17 89 1014.8
20260509024005 63 117 3.0 6.0 0.00 0.16 0.16 89 1014.2
20260509023005 63 129 2.0 5.0 0.00 0.16 0.16 89 1015.1
20260509021005 63 174 3.0 9.0 0.00 0.16 0.16 90 1015.6
20260509020005 63 144 2.0 8.0 0.00 0.16 0.16 90 1015.4
20260509015004 63 160 3.0 6.0 0.00 0.16 0.16 90 1015.3
20260509014005 63 167 1.0 9.0 0.01 0.16 0.16 90 1015.3
20260509012004 64 178 3.0 7.0 0.01 0.16 0.16 90 1015.6
20260509011004 64 140 2.0 5.0 0.01 0.16 0.16 90 1015.7
20260509010004 64 210 1.0 3.0 0.02 0.16 0.16 90 1016.2
20260509005003 64 226 0.0 3.0 0.02 0.16 0.16 89 1016.3
20260509003004 64 283 0.0 1.0 0.07 0.15 0.15 89 1015.7
20260509002005 65 264 1.0 3.0 0.09 0.15 0.15 88 1016.1
20260509001004 65 236 1.0 3.0 0.11 0.15 0.15 87 1015.9
20260509000004 65 152 1.0 7.0 0.11 0.14 0.14 88 1015.7
20260508235004 66 146 3.0 7.0 0.12 0.14 0.14 88 1015.4
20260508234003 66 200 1.0 2.0 0.11 0.11 0.11 87 1016.5
20260508233004 66 300 0.0 1.0 0.08 0.08 0.08 87 1016.4
20260508232004 67 300 0.0 1.0 0.06 0.06 0.06 86 1016.3
20260508231003 67 300 0.0 0.0 0.04 0.04 0.04 83 1015.6
20260508230004 68 300 0.0 1.0 0.03 0.03 0.03 82 1015.7
20260508225004 69 300 0.0 2.0 0.02 0.02 0.02 81 1015.9
20260508223004 69 329 1.0 2.0 0.00 0.00 0.00 77 1015.3
20260508222003 70 329 0.0 2.0 0.00 0.00 0.00 74 1014.9
20260508221003 71 329 1.0 2.0 0.00 0.00 0.00 71 1015.1
20260508220004 71 60 1.0 2.0 0.00 0.00 0.00 68 1014.8
20260508215004 72 60 1.0 2.0 0.00 0.00 0.00 65 1014.6
20260508214004 72 59 0.0 2.0 0.00 0.00 0.00 65 1014.3
20260508213004 72 59 0.0 2.0 0.00 0.00 0.00 61 1014.6
20260508212005 73 109 0.0 3.0 0.00 0.00 0.00 61 1015.0
20260508211003 73 153 1.0 3.0 0.00 0.00 0.00 60 1015.1
20260508210004 73 126 1.0 3.0 0.00 0.00 0.00 60 1015.0
20260508205004 73 97 0.0 3.0 0.00 0.00 0.00 60 1015.0
20260508204003 73 119 2.0 3.0 0.00 0.00 0.00 59 1015.1
20260508203003 72 87 2.0 3.0 0.00 0.00 0.00 60 1015.1
20260508202004 72 78 1.0 3.0 0.00 0.00 0.00 59 1015.3
20260508201003 73 110 1.0 5.0 0.00 0.00 0.00 58 1015.2
20260508200004 73 117 3.0 6.0 0.00 0.00 0.00 57 1015.4
20260508195004 73 66 3.0 3.0 0.00 0.00 0.00 59 1015.4
20260508194004 74 95 3.0 7.0 0.00 0.00 0.00 56 1015.3
20260508193004 74 91 2.0 6.0 0.00 0.00 0.00 56 1015.5
20260508192003 75 72 2.0 5.0 0.00 0.00 0.00 55 1015.7
20260508191004 75 112 2.0 3.0 0.00 0.00 0.00 55 1015.9
20260508190004 75 64 3.0 7.0 0.00 0.00 0.00 54 1016.1
20260508185004 75 86 2.0 5.0 0.00 0.00 0.00 54 1016.4
20260508183003 76 107 3.0 5.0 0.00 0.00 0.00 54 1016.4
20260508182004 75 142 2.0 6.0 0.00 0.00 0.00 57 1016.2
20260508181004 74 171 3.0 7.0 0.00 0.00 0.00 54 1016.1
20260508180003 74 344 2.0 6.0 0.00 0.00 0.00 57 1016.2
20260508175004 74 29 1.0 5.0 0.00 0.00 0.00 55 1016.2
20260508173004 74 104 3.0 6.0 0.00 0.00 0.00 57 1016.4
20260508172004 74 54 2.0 5.0 0.00 0.00 0.00 54 1016.8
20260508171004 73 133 2.0 7.0 0.00 0.00 0.00 58 1016.8
20260508165005 72 112 2.0 3.0 0.00 0.00 0.00 57 1017.2
20260508164004 71 43 2.0 3.0 0.00 0.00 0.00 58 1017.0
20260508163004 72 37 1.0 6.0 0.00 0.00 0.00 57 1017.4
20260508162003 72 67 1.0 5.0 0.00 0.00 0.00 56 1017.5
20260508161004 72 92 2.0 7.0 0.00 0.00 0.00 54 1017.6
20260508160004 72 67 3.0 7.0 0.00 0.00 0.00 56 1017.7
20260508155005 72 357 3.0 7.0 0.00 0.00 0.00 54 1017.8
20260508153004 72 303 2.0 8.0 0.00 0.00 0.00 59 1017.8
20260508152004 71 61 3.0 8.0 0.00 0.00 0.00 56 1018.0
20260508151004 71 86 2.0 8.0 0.00 0.00 0.00 62 1018.0
20260508150004 69 40 2.0 8.0 0.00 0.00 0.00 63 1018.0
20260508145003 69 87 1.0 6.0 0.00 0.00 0.00 65 1017.9
20260508144004 68 2 2.0 9.0 0.00 0.00 0.00 65 1018.0
20260508142004 66 27 3.0 9.0 0.00 0.00 0.00 68 1018.0
20260508141004 66 53 3.0 10.0 0.00 0.01 0.00 68 1017.8
20260508140004 66 50 2.0 8.0 0.00 0.04 0.00 70 1017.8
20260508135004 66 66 5.0 9.0 0.00 0.07 0.00 69 1017.9
20260508134004 66 55 2.0 9.0 0.00 0.11 0.00 70 1017.6
20260508132004 66 41 3.0 7.0 0.00 0.15 0.00 72 1017.8
20260508131003 66 358 1.0 6.0 0.00 0.18 0.00 72 1017.8
20260508130004 66 14 4.0 7.0 0.00 0.30 0.00 74 1017.5
20260508125004 65 354 2.0 7.0 0.00 0.36 0.00 77 1017.5
20260508124004 64 8 2.0 5.0 0.00 0.39 0.00 79 1017.5
20260508123004 64 24 1.0 3.0 0.00 0.45 0.00 79 1017.7
20260508122003 64 5 1.0 3.0 0.00 0.62 0.00 80 1017.7
20260508120004 64 5 1.0 3.0 0.00 0.63 0.00 81 1017.2
20260508115004 64 341 1.0 3.0 0.00 0.63 0.00 81 1016.9
20260508114004 63 13 2.0 3.0 0.00 0.63 0.00 82 1016.8